This is the latest recevied weather packets stored in our database for station/object K7TUS-6. If no packets are shown the sender has not sent any weather packets the latest 10 day(s).
| Time | Temp. | Humidity | Pressure | Rain* | Wind** | Luminosity | Snow |
|---|---|---|---|---|---|---|---|
| 1777438204 | 9.44° C | 1% | 985.2 hPa | - | - | - | - |
| 1777437609 | 9.44° C | 1% | 986 hPa | - | - | - | - |
| 1777437308 | 9.44° C | 1% | 985.4 hPa | - | - | - | - |
| 1777436105 | 10° C | 1% | 985 hPa | - | - | - | - |
| 1777427105 | 11.11° C | 1% | 984.3 hPa | - | - | - | - |
| 1777425608 | 12.22° C | 1% | 984.7 hPa | - | - | - | - |
| 1777422007 | 13.89° C | 1% | 984.8 hPa | - | - | - | - |
| 1777420509 | 15° C | 1% | 986.4 hPa | - | - | - | - |
| 1777415407 | 19.44° C | 1% | 986.1 hPa | - | - | - | - |
| 1777414505 | 17.78° C | 1% | 986.6 hPa | - | - | - | - |
| 1777414204 | 18.89° C | 1% | 986.4 hPa | - | - | - | - |
| 1777410309 | 17.78° C | 1% | 986.7 hPa | - | - | - | - |
| 1777409708 | 18.33° C | 1% | 987 hPa | - | - | - | - |
| 1777407904 | 17.78° C | 1% | 986.9 hPa | - | - | - | - |
| 1777407303 | 16.67° C | 1% | 986.9 hPa | - | - | - | - |
| 1777406708 | 16.67° C | 1% | 986.4 hPa | - | - | - | - |
| 1777406407 | 17.22° C | 1% | 986.7 hPa | - | - | - | - |
| 1777405806 | 17.78° C | 1% | 986.5 hPa | - | - | - | - |
| 1777404904 | 16.11° C | 1% | 986.9 hPa | - | - | - | - |
| 1777404303 | 15.56° C | 1% | 986.2 hPa | - | - | - | - |
| 1777404008 | 14.44° C | 1% | 986.4 hPa | - | - | - | - |
| 1777403708 | 15.56° C | 1% | 986.4 hPa | - | - | - | - |
| 1777403107 | 16.11° C | 1% | 986.9 hPa | - | - | - | - |
| 1777402206 | 15.56° C | 1% | 986.6 hPa | - | - | - | - |
| 1777401304 | 16.11° C | 1% | 986.3 hPa | - | - | - | - |
* Rain since midnight (hover to see other rain measurements)
** Current wind speed in m/s (hover to see current wind gust speed)